GW2451 Weather Reports


Display with metric or nautical units.
time (UTC)temp
F
wind
direction
speed
MPH
gust
MPH
rain 1hr
in
rain 24hr
in
rain mn
in
humidity
%
barometer
mb
20260510114543 47 20 1.0 10.0 0.00 0.34 0.00 71 1014.9
20260510113047 47 23 2.0 8.0 0.00 0.34 0.00 74 1014.5
20260510111551 47 5 0.0 7.0 0.00 0.34 0.00 78 1014.4
20260510110046 47 348 3.0 8.0 0.00 0.34 0.00 78 1013.9
20260510104545 47 52 0.0 10.0 0.00 0.34 0.00 80 1013.5
20260510103047 47 0 2.0 6.0 0.00 0.34 0.00 81 1013.1
20260510101550 47 350 2.0 7.0 0.00 0.34 0.00 80 1012.9
20260510100046 48 332 2.0 6.0 0.00 0.34 0.00 80 1012.6
20260510094542 48 39 2.0 6.0 0.00 0.34 0.00 80 1012.4
20260510093042 48 33 1.0 9.0 0.00 0.34 0.00 81 1012.2
20260510091541 48 352 1.0 5.0 0.00 0.34 0.00 83 1011.8
20260510090040 48 0 0.0 2.0 0.00 0.34 0.00 84 1011.6
20260510084544 48 0 0.0 0.0 0.00 0.34 0.00 85 1011.3
20260510083058 48 0 0.0 1.0 0.00 0.34 0.00 84 1011.4
20260510081543 49 0 0.0 0.0 0.00 0.34 0.00 82 1011.0
20260510080047 49 0 0.0 0.0 0.00 0.34 0.00 79 1010.9
20260510074556 49 0 0.0 3.0 0.00 0.34 0.00 78 1010.4
20260510073047 50 360 0.0 2.0 0.00 0.34 0.00 77 1010.1
20260510071543 50 0 0.0 4.0 0.00 0.34 0.00 76 1010.2
20260510070048 51 360 0.0 4.0 0.00 0.34 0.00 76 1010.1
20260510064544 51 302 2.0 8.0 0.00 0.34 0.00 75 1009.9
20260510063043 52 50 4.0 12.0 0.00 0.34 0.00 73 1009.8
20260510061548 52 47 3.0 10.0 0.00 0.34 0.00 73 1009.8
20260510060043 53 35 3.0 16.0 0.00 0.34 0.00 78 1009.9
20260510054544 55 44 4.0 9.0 0.00 0.34 0.00 89 1009.3
20260510053042 55 0 0.0 1.0 0.00 0.34 0.00 90 1008.7
20260510051547 55 0 0.0 2.0 0.00 0.34 0.00 90 1008.4
20260510050050 55 313 0.0 2.0 0.00 0.34 0.00 90 1008.3
20260510044545 54 0 1.0 5.0 0.00 0.36 0.00 90 1007.8
20260510043044 55 230 0.0 2.0 0.00 0.36 0.00 90 1007.4
20260510041544 55 0 0.0 1.0 0.00 0.36 0.00 90 1007.0
20260510040040 55 0 0.0 3.0 0.00 0.36 0.00 90 1006.9
20260510034549 55 0 0.0 2.0 0.00 0.36 0.36 91 1006.9
20260510033053 55 192 1.0 4.0 0.00 0.36 0.36 92 1006.9
20260510031543 55 0 0.0 2.0 0.00 0.36 0.36 93 1007.2
20260510030043 54 0 0.0 2.0 0.00 0.36 0.36 93 1007.1
20260510024539 54 0 0.0 2.0 0.00 0.36 0.36 93 1006.9
20260510023044 54 0 0.0 2.0 0.00 0.36 0.36 93 1006.6
20260510021543 54 171 1.0 4.0 0.00 0.36 0.36 92 1007.1
20260510020043 54 0 0.0 2.0 0.00 0.36 0.36 92 1006.5
20260510014543 54 200 0.0 2.0 0.00 0.37 0.36 91 1006.2
20260510013040 54 0 0.0 3.0 0.00 0.37 0.36 91 1006.2
20260510011545 55 0 0.0 0.0 0.00 0.37 0.36 90 1006.1
20260510010044 55 0 0.0 2.0 0.00 0.37 0.36 91 1006.1
20260510004543 55 0 0.0 0.0 0.00 0.39 0.36 90 1005.9
20260510003055 56 0 0.0 1.0 0.00 0.39 0.36 91 1006.0
20260510001539 56 0 0.0 2.0 0.00 0.39 0.36 90 1005.9
20260510000047 56 0 0.0 2.0 0.03 0.39 0.36 90 1005.9
20260509234545 56 250 0.0 2.0 0.12 0.45 0.36 90 1005.8
20260509233043 56 234 0.0 2.0 0.34 0.45 0.36 89 1005.8
20260509231542 56 275 1.0 7.0 0.34 0.45 0.36 87 1005.6
20260509230051 58 346 2.0 3.0 0.31 0.42 0.33 83 1006.3
20260509224553 60 246 2.0 11.0 0.22 0.40 0.24 76 1005.6
20260509223048 69 306 2.0 8.0 0.00 0.18 0.02 51 1004.7
20260509221541 70 239 2.0 6.0 0.00 0.18 0.02 50 1003.0
20260509220041 70 167 2.0 8.0 0.00 0.18 0.02 50 1003.3
20260509214544 71 221 3.0 7.0 0.00 0.20 0.02 49 1003.2
20260509213043 71 252 2.0 11.0 0.00 0.20 0.02 49 1003.1
20260509211540 71 210 4.0 9.0 0.00 0.20 0.02 50 1002.9
20260509210049 71 225 2.0 13.0 0.00 0.20 0.02 51 1003.1
20260509204545 71 214 2.0 11.0 0.00 0.20 0.02 53 1003.5
20260509203053 70 259 4.0 12.0 0.00 0.20 0.02 52 1003.7
20260509201543 70 308 2.0 8.0 0.00 0.20 0.02 53 1004.0
20260509200048 69 248 3.0 6.0 0.00 0.20 0.02 54 1004.3
20260509194546 69 268 3.0 10.0 0.00 0.20 0.02 53 1004.4
20260509193045 69 237 3.0 12.0 0.00 0.20 0.02 54 1004.6
20260509191547 69 213 3.0 11.0 0.00 0.20 0.02 54 1004.8
20260509190045 69 149 1.0 8.0 0.00 0.20 0.02 56 1005.0
20260509184547 69 238 4.0 12.0 0.00 0.20 0.02 55 1005.1
20260509183047 69 231 2.0 6.0 0.00 0.20 0.02 56 1005.3
20260509181605 69 236 2.0 7.0 0.00 0.20 0.02 55 1005.4
20260509180110 69 167 2.0 10.0 0.00 0.20 0.02 55 1005.2
20260509174543 67 195 2.0 8.0 0.00 0.20 0.02 59 1005.2
20260509173047 67 234 2.0 12.0 0.00 0.20 0.02 58 1005.7
20260509171552 67 248 3.0 8.0 0.00 0.20 0.02 60 1005.7
20260509170052 66 297 2.0 9.0 0.00 0.20 0.02 62 1005.6
20260509164543 65 257 1.0 6.0 0.00 0.20 0.02 63 1005.7
20260509163044 64 266 2.0 7.0 0.00 0.20 0.02 66 1005.7
20260509161552 63 257 1.0 5.0 0.00 0.20 0.02 69 1005.7
20260509160039 62 231 1.0 5.0 0.00 0.20 0.02 70 1006.0
20260509154542 62 311 2.0 6.0 0.00 0.20 0.02 72 1006.2
20260509153047 62 0 1.0 6.0 0.00 0.20 0.02 72 1006.2
20260509151549 61 352 2.0 7.0 0.00 0.20 0.02 75 1006.2
20260509150042 61 0 3.0 7.0 0.00 0.20 0.02 77 1006.0
20260509144544 59 0 1.0 6.0 0.00 0.20 0.02 84 1006.0
20260509143057 58 0 0.0 5.0 0.00 0.20 0.02 88 1006.0
20260509141547 56 206 2.0 4.0 0.00 0.20 0.02 90 1006.2
20260509140042 56 331 0.0 4.0 0.00 0.20 0.02 92 1006.4
20260509134545 55 217 1.0 3.0 0.00 0.20 0.02 93 1006.5
20260509133055 55 238 2.0 5.0 0.00 0.20 0.02 94 1006.6
20260509131545 55 239 1.0 4.0 0.00 0.20 0.02 95 1006.5
20260509130046 54 262 1.0 9.0 0.00 0.20 0.02 96 1006.4
20260509124547 53 0 0.0 3.0 0.00 0.20 0.02 95 1006.6
20260509123042 53 0 0.0 2.0 0.00 0.20 0.02 96 1006.6
20260509121548 53 0 0.0 2.0 0.00 0.20 0.02 95 1006.8
20260509120046 52 0 0.0 1.0 0.00 0.20 0.02 95 1006.9